Regional Weather Roundup
Issued by NWS

Home | Current Version | Previous Version | Graphics & Text | Print | Product List | Glossary On
Versions: 1 2 3 4 5 6 7 8 9 10 11 12 13 14 15 16 17 18 19 20 21 22 23 24 25 26 27 28 29 30 31 32 33 34 35 36 37 38 39 40 41 42 43 44 45 46 47 48 49 50
000
ASUS44 KMEG 190710
RWRTN
TENNESSEE HOURLY STATE WEATHER ROUNDUP
NATIONAL WEATHER SERVICE MEMPHIS TN
200 AM CDT TUE SEP 19 2017

TNZ002-004-019-021-049-052-054-088>092-190800-
WEST TENNESSEE

CITY           SKY/WX    TMP DP  RH WIND       PRES   REMARKS
MEMPHIS INTL   CLEAR     72  69  90 S3        29.94S
NWS MEMPHIS      N/A     70 N/A N/A MISG        N/A
JACKSON        CLEAR     69  69 100 CALM      29.96S FOG
DYERSBURG      CLEAR     72  70  93 CALM      29.95S
SOMERVILLE     PTCLDY    70  70 100 CALM      29.94R FOG
COVINGTON      PTCLDY    68  68 100 CALM      29.95S
UNION CITY     PTCLDY    72  70  94 MISG      29.93F
BOLIVAR        FOG       70  70 100 CALM      29.95R VSB 1/4
PARIS          MOCLDY    72  70  94 CALM      29.95S
HUNTINGDON     CLEAR     72  70  94 CALM      29.94S
LEXINGTON      FOG       70  68  94 CALM      29.96R VSB 1
SELMER         PTCLDY    70  68  94 CALM      29.96R
SAVANNAH       PTCLDY    70  70 100 CALM      29.95S
$$

TNZ008-025-027-028-033-062-065-066-190800-
NORTH MIDDLE TENNESSEE

CITY           SKY/WX    TMP DP  RH WIND       PRES   REMARKS
NASHVILLE      PTCLDY    69  66  90 CALM      29.99F
PORTLAND       CLEAR     68  66  94 S5        29.97F
CLARKSVILLE    PTCLDY    68  66  93 SE3       29.96S
SMYRNA           N/A    N/A N/A N/A MISG        N/A
COOKEVILLE     CLEAR     61  61 100 CALM      30.00F FOG
GALLATIN       PTCLDY    66  64  94 CALM      30.00F
CROSSVILLE     CLEAR     62  60  93 CALM      30.06F
$$

TNZ061-075-076-078-094-096-097-190800-
SOUTH MIDDLE TENNESSEE

CITY           SKY/WX    TMP DP  RH WIND       PRES   REMARKS
TULLAHOMA      CLEAR     63  61  94 CALM      30.02S
WINCHESTER     CLEAR     64  63  94 CALM      30.01S
MCMINNVILLE    CLEAR     63  63 100 CALM      30.01S
COLUMBIA       CLEAR     68 N/A N/A CALM      29.96S HAZE
SHELBYVILLE    CLEAR     66  64  94 E5        29.99F
$$

TNZ017-018-042-046-047-190800-
NORTHEAST TENNESSEE

CITY           SKY/WX    TMP DP  RH WIND       PRES   REMARKS
TRI CITIES     CLEAR     57  57 100 CALM      30.05S FOG
ELIZABETHTON   CLEAR     61  57  88 CALM      30.05F
$$

TNZ012-013-036-069-073-074-190800-
CENTRAL EAST TENNESSEE

CITY           SKY/WX    TMP DP  RH WIND       PRES   REMARKS
KNOXVILLE      CLEAR     67  63  87 CALM      30.00F
OAK RIDGE      CLEAR     66  64  93 CALM      30.03S
DOWNTOWN KNOXV CLEAR     64  64 100 CALM      30.00F FOG
GATLINBURG     CLEAR     61  59  94 CALM      30.01S
MORRISTOWN     CLEAR     64  61  88 CALM      30.01F
JACKSBORO      PTCLDY    63  61  94 CALM      30.06S FOG
$$

TNZ083-085-099-190800-
SOUTHEAST TENNESSEE

CITY           SKY/WX    TMP DP  RH WIND       PRES   REMARKS
CHATTANOOGA    CLEAR     66  63  90 W3        30.00F
DAYTON         CLOUDY    64  64 100 CALM      29.99F
$$

SKY/WX REPORTED AS FAIR MEANS FEW OR NO CLOUDS BELOW
12 THOUSAND FEET.





USA.gov is the U.S. government's official web portal to all federal, state and local government web resources and services.